H1 CPF 2 NER 2022 4 21 9 111 01 glonass140 H2 1903001 9140 44299 2022 4 21 0 0 0 2022 4 24 23 45 0 900 1 1 0 0 0 1 H9 10 0 59690 0.00000 0 13157014.464 17114758.246 13595893.493 10 0 59690 900.00000 0 11684318.135 16030748.174 16047200.476 10 0 59690 1800.00000 0 9890507.282 14918868.157 18187070.129 10 0 59690 2700.00000 0 7802902.745 13836466.893 19974108.575 10 0 59690 3600.00000 0 5460456.641 12836068.215 21373786.146 10 0 59690 4500.00000 0 2912378.943 11963138.770 22359092.808 10 0 59690 5400.00000 0 216340.287 11254172.719 22911047.865 10 0 59690 6300.00000 0 -2563674.983 10735172.453 23019055.471 10 0 59690 7200.00000 0 -5359777.325 10420587.623 22681100.184 10 0 59690 8100.00000 0 -8102743.508 10312755.616 21903779.724 10 0 59690 9000.00000 0 -10724646.136 10401865.927 20702174.753 10 0 59690 9900.00000 0 -13161433.764 10666449.223 19099558.305 10 0 59690 10800.00000 0 -15355356.367 11074370.347 17126950.140 10 0 59690 11700.00000 0 -17257137.122 11584283.716 14822523.918 10 0 59690 12600.00000 0 -18827801.528 12147490.478 12230877.768 10 0 59690 13500.00000 0 -20040088.888 12710119.991 9402181.233 10 0 59690 14400.00000 0 -20879388.079 13215544.591 6391213.968 10 0 59690 15300.00000 0 -21344158.869 13606926.557 3256313.829 10 0 59690 16200.00000 0 -21445821.341 13829790.350 58253.890 10 0 59690 17100.00000 0 -21208117.916 13834511.664 -3140930.523 10 0 59690 18000.00000 0 -20665974.470 13578617.957 -6279142.240 10 0 59690 18900.00000 0 -19863908.082 13028802.579 -9295426.924 10 0 59690 19800.00000 0 -18854048.053 12162566.299 -12131158.524 10 0 59690 20700.00000 0 -17693853.236 10969415.478 -14731182.035 10 0 59690 21600.00000 0 -16443621.686 9451564.500 -17044891.019 10 0 59690 22500.00000 0 -15163897.478 7624110.828 -19027218.445 10 0 59690 23400.00000 0 -13912884.090 5514673.245 -20639521.028 10 0 59690 24300.00000 0 -12743973.502 3162506.319 -21850339.424 10 0 59690 25200.00000 0 -11703495.372 617126.221 -22636019.003 10 0 59690 26100.00000 0 -10828781.470 -2063496.241 -22981178.619 10 0 59690 27000.00000 0 -10146627.207 -4815101.314 -22879017.826 10 0 59690 27900.00000 0 -9672215.359 -7569575.381 -22331456.057 10 0 59690 28800.00000 0 -9408547.571 -10257554.461 -21349100.586 10 0 59690 29700.00000 0 -9346407.668 -12811087.959 -19951043.474 10 0 59690 30600.00000 0 -9464858.218 -15166251.722 -18164491.030 10 0 59690 31500.00000 0 -9732249.113 -17265601.210 -16024232.781 10 0 59690 32400.00000 0 -10107695.011 -19060362.343 -13571960.186 10 0 59690 33300.00000 0 -10542958.434 -20512268.396 -10855448.484 10 0 59690 34200.00000 0 -10984657.909 -21594966.225 -7927618.056 10 0 59690 35100.00000 0 -11376706.561 -22294933.400 -4845494.218 10 0 59690 36000.00000 0 -11662876.683 -22611868.602 -1669086.573 10 0 59690 36900.00000 0 -11789380.502 -22558540.026 1539789.141 10 0 59690 37800.00000 0 -11707356.735 -22160099.705 4718722.674 10 0 59690 38700.00000 0 -11375156.786 -21452894.306 7805929.774 10 0 59690 39600.00000 0 -10760333.244 -20482824.214 10741456.890 10 0 59690 40500.00000 0 -9841246.270 -19303321.717 13468346.088 10 0 59690 41400.00000 0 -8608219.932 -17973034.759 15933737.438 10 0 59690 42300.00000 0 -7064199.857 -16553314.770 18089887.576 10 0 59690 43200.00000 0 -5224884.620 -15105614.624 19895085.415 10 0 59690 44100.00000 0 -3118325.411 -13688905.988 21314448.263 10 0 59690 45000.00000 0 -784010.656 -12357223.792 22320584.119 10 0 59690 45900.00000 0 1728526.532 -11157439.695 22894108.777 10 0 59690 46800.00000 0 4361520.739 -10127356.354 23024009.060 10 0 59690 47700.00000 0 7051131.982 -9294200.703 22707846.347 10 0 59690 48600.00000 0 9729860.447 -8673577.650 21951797.353 10 0 59690 49500.00000 0 12329119.539 -8268926.501 20770531.900 10 0 59690 50400.00000 0 14781862.046 -8071501.718 19186930.117 10 0 59690 51300.00000 0 17025152.124 -8060877.998 17231644.252 10 0 59690 52200.00000 0 19002577.919 -8205958.077 14942512.845 10 0 59690 53100.00000 0 20666405.788 -8466440.986 12363837.710 10 0 59690 54000.00000 0 21979387.633 -8794689.305 9545536.609 10 0 59690 54900.00000 0 22916146.699 -9137917.351 6542186.854 10 0 59690 55800.00000 0 23464084.339 -9440608.608 3411977.421 10 0 59690 56700.00000 0 23623769.905 -9647060.897 215588.956 10 0 59690 57600.00000 0 23408797.197 -9703952.022 -2984977.218 10 0 59690 58500.00000 0 22845113.077 -9562817.418 -6127598.701 10 0 59690 59400.00000 0 21969845.898 -9182334.598 -9151237.027 10 0 59690 60300.00000 0 20829682.455 -8530316.917 -11997124.618 10 0 59690 61200.00000 0 19478861.170 -7585331.161 -14609910.217 10 0 59690 62100.00000 0 17976865.557 -6337868.985 -16938740.168 10 0 59690 63000.00000 0 16385914.683 -4791020.831 -18938254.046 10 0 59690 63900.00000 0 14768356.106 -2960621.895 -20569474.711 10 0 59690 64800.00000 0 13184070.890 -874861.784 -21800575.012 10 0 59690 65700.00000 0 11687999.921 1426627.886 -22607505.744 10 0 59690 66600.00000 0 10327895.670 3894171.559 -22974472.121 10 0 59690 67500.00000 0 9142394.074 6469876.680 -22894249.062 10 0 59690 68400.00000 0 8159487.682 9089814.446 -22368328.669 10 0 59690 69300.00000 0 7395464.344 11686464.149 -21406896.542 10 0 59690 70200.00000 0 6854355.952 14191319.633 -20028636.982 10 0 59690 71100.00000 0 6527920.130 16537549.301 -18260370.448 10 0 59690 72000.00000 0 6396155.160 18662598.466 -16136530.107 10 0 59690 72900.00000 0 6428325.675 20510625.142 -13698487.571 10 0 59690 73800.00000 0 6584454.810 22034667.211 -10993741.037 10 0 59690 74700.00000 0 6817218.599 23198450.035 -8074982.116 10 0 59690 75600.00000 0 7074161.121 23977758.925 -4999060.138 10 0 59690 76500.00000 0 7300135.206 24361319.270 -1825864.942 10 0 59690 77400.00000 0 7439863.920 24351148.117 1382848.941 10 0 59690 78300.00000 0 7440513.014 23962363.555 4564672.796 10 0 59690 79200.00000 0 7254164.275 23222461.315 7657764.298 10 0 59690 80100.00000 0 6840084.212 22170090.570 10602053.481 10 0 59690 81000.00000 0 6166691.581 20853382.000 13340410.122 10 0 59690 81900.00000 0 5213140.323 19327899.843 15819749.658 10 0 59690 82800.00000 0 3970451.114 17654305.094 17992056.323 10 0 59690 83700.00000 0 2442143.945 15895828.632 19815304.312 10 0 59690 84600.00000 0 644345.203 14115660.331 21254260.124 10 0 59690 85500.00000 0 -1394635.211 12374363.197 22281151.716 10 0 59691 0.00000 0 -3635239.088 10727419.882 22876192.923 10 0 59691 900.00000 0 -6028070.201 9223011.953 23027954.564 10 0 59691 1800.00000 0 -8515718.585 7900125.244 22733575.555 10 0 59691 2700.00000 0 -11034928.141 6787055.678 21998811.930 10 0 59691 3600.00000 0 -13519015.846 5900378.427 20837922.470 10 0 59691 4500.00000 0 -15900444.738 5244421.056 19273393.664 10 0 59691 5400.00000 0 -18113445.243 4811261.519 17335508.974 10 0 59691 6300.00000 0 -20096577.458 4581250.215 15061770.028 10 0 59691 7200.00000 0 -21795129.079 4524033.737 12496180.086 10 0 59691 8100.00000 0 -23163250.270 4600037.198 9688402.503 10 0 59691 9000.00000 0 -24165737.174 4762342.945 6692809.346 10 0 59691 9900.00000 0 -24779389.891 4958886.894 3567437.601 10 0 59691 10800.00000 0 -24993888.183 5134880.196 372872.283 10 0 59691 11700.00000 0 -24812147.864 5235354.232 -2828922.558 10 0 59691 12600.00000 0 -24250142.368 5207721.454 -5975802.551 10 0 59691 13500.00000 0 -23336196.244 5004243.478 -9006648.328 10 0 59691 14400.00000 0 -22109779.463 4584301.401 -11862553.923 10 0 59691 15300.00000 0 -20619852.421 3916371.323 -14487974.817 10 0 59691 16200.00000 0 -18922830.504 2979620.182 -16831812.893 10 0 59691 17100.00000 0 -17080253.181 1765052.760 -18848416.781 10 0 59691 18000.00000 0 -15156255.182 276159.578 -20498477.532 10 0 59691 18900.00000 0 -13214945.688 -1470963.731 -21749801.769 10 0 59691 19800.00000 0 -11317805.411 -3448032.727 -22577946.777 10 0 59691 20700.00000 0 -9521210.812 -5615510.649 -22966704.661 10 0 59691 21600.00000 0 -7874189.294 -7924027.646 -22908425.718 10 0 59691 22500.00000 0 -6416499.537 -10316224.876 -22404174.236 10 0 59691 23400.00000 0 -5177117.486 -12728947.343 -21463713.216 10 0 59691 24300.00000 0 -4173191.303 -15095694.617 -20105317.874 10 0 59691 25200.00000 0 -3409508.778 -17349227.289 -18355421.165 10 0 59691 26100.00000 0 -2878499.007 -19424220.163 -16248097.982 10 0 59691 27000.00000 0 -2560767.364 -21259850.986 -13824397.968 10 0 59691 27900.00000 0 -2426140.079 -22802216.007 -11131540.043 10 0 59691 28800.00000 0 -2435173.016 -24006470.738 -8221984.750 10 0 59691 29700.00000 0 -2541059.358 -24838605.946 -5152403.118 10 0 59691 30600.00000 0 -2691853.863 -25276784.354 -1982562.940 10 0 59691 31500.00000 0 -2832917.937 -25312182.189 1225844.719 10 0 59691 32400.00000 0 -2909480.405 -24949300.936 4410414.881 10 0 59691 33300.00000 0 -2869204.172 -24205737.164 7509249.319 10 0 59691 34200.00000 0 -2664649.037 -23111421.355 10462163.801 10 0 59691 35100.00000 0 -2255525.662 -21707359.127 13211857.919 10 0 59691 36000.00000 0 -1610644.978 -20043929.014 15705024.519 10 0 59691 36900.00000 0 -709480.601 -18178809.419 17893377.366 10 0 59691 37800.00000 0 456721.543 -16174622.428 19734577.726 10 0 59691 38700.00000 0 1884332.962 -14096393.439 21193042.879 10 0 59691 39600.00000 0 3557257.174 -12008932.689 22240622.120 10 0 59691 40500.00000 0 5447372.781 -9974247.312 22857128.516 10 0 59691 41400.00000 0 7515486.841 -8049090.661 23030717.546 10 0 59691 42300.00000 0 9712759.280 -6282749.591 22758106.433 10 0 59691 43200.00000 0 11982539.957 -4715160.032 22044630.925 10 0 59691 44100.00000 0 14262543.091 -3375427.516 20904138.927 10 0 59691 45000.00000 0 16487269.938 -2280812.561 19358723.230 10 0 59691 45900.00000 0 18590580.464 -1436221.630 17438298.207 10 0 59691 46800.00000 0 20508308.509 -834223.634 15180028.024 10 0 59691 47700.00000 0 22180812.830 -455590.417 12627616.531 10 0 59691 48600.00000 0 23555358.814 -270338.008 9830471.498 10 0 59691 49500.00000 0 24588232.244 -239224.729 6842758.202 10 0 59691 50400.00000 0 25246497.111 -315643.210 3722359.712 10 0 59691 51300.00000 0 25509323.923 -447826.776 529763.122 10 0 59691 52200.00000 0 25368832.506 -581277.296 -2673107.397 10 0 59691 53100.00000 0 24830413.213 -661312.067 -5824088.356 10 0 59691 54000.00000 0 23912512.180 -635621.894 -8861982.459 10 0 59691 54900.00000 0 22645888.618 -456731.752 -11727748.377 10 0 59691 55800.00000 0 21072374.264 -84259.194 -14365651.288 10 0 59691 56700.00000 0 19243186.110 513126.099 -16724351.468 10 0 59691 57600.00000 0 17216862.356 1356125.916 -18757909.283 10 0 59691 58500.00000 0 15056907.523 2453688.477 -20426686.481 10 0 59691 59400.00000 0 12829244.977 3802384.123 -21698125.754 10 0 59691 60300.00000 0 10599583.233 5386310.046 -22547392.949 10 0 59691 61200.00000 0 8430806.238 7177529.986 -22957868.882 10 0 59691 62100.00000 0 6380496.779 9137032.293 -22921480.745 10 0 59691 63000.00000 0 4498696.557 11216167.774 -22438866.185 10 0 59691 63900.00000 0 2825996.701 13358508.277 -21519366.373 10 0 59691 64800.00000 0 1392038.403 15502049.055 -20180847.786 10 0 59691 65700.00000 0 214486.110 17581663.200 -18449355.758 10 0 59691 66600.00000 0 -701484.216 19531705.389 -16358606.315 10 0 59691 67500.00000 0 -1363161.221 21288655.673 -13949326.068 10 0 59691 68400.00000 0 -1789740.839 22793692.099 -11268453.127 10 0 59691 69300.00000 0 -2011260.397 23995083.634 -8368214.993 10 0 59691 70200.00000 0 -2067070.806 24850302.510 -5305102.013 10 0 59691 71100.00000 0 -2003913.154 25327766.912 -2138757.205 10 0 59691 72000.00000 0 -1873682.830 25408140.661 1069194.848 10 0 59691 72900.00000 0 -1730977.602 25085135.523 4256356.125 10 0 59691 73800.00000 0 -1630535.022 24365782.973 7360775.833 10 0 59691 74700.00000 0 -1624668.950 23270164.877 10322158.841 10 0 59691 75600.00000 0 -1760814.650 21830615.471 13083037.863 10 0 59691 76500.00000 0 -2079286.896 20090429.275 15589886.361 10 0 59691 77400.00000 0 -2611345.987 18102130.185 17794150.666 10 0 59691 78300.00000 0 -3377653.249 15925375.050 19653181.940 10 0 59691 79200.00000 0 -4387180.838 13624579.817 21131050.835 10 0 59691 80100.00000 0 -5636621.410 11266367.396 22199230.266 10 0 59691 81000.00000 0 -7110322.234 8916943.143 22837134.459 10 0 59691 81900.00000 0 -8780746.569 6639506.244 23032505.220 10 0 59691 82800.00000 0 -10609443.261 4491803.343 22781639.125 10 0 59691 83700.00000 0 -12548484.716 2523924.449 22089452.245 10 0 59691 84600.00000 0 -14542314.251 776430.819 20969381.673 10 0 59691 85500.00000 0 -16529926.923 -721109.114 19443125.982 10 0 59692 0.00000 0 -18447294.225 -1951116.545 17540229.552 10 0 59692 900.00000 0 -20229933.986 -2908492.459 15297517.079 10 0 59692 1800.00000 0 -21815517.044 -3600580.270 12758390.996 10 0 59692 2700.00000 0 -23146406.485 -4046605.570 9972000.877 10 0 59692 3600.00000 0 -24172021.568 -4276615.288 6992302.247 10 0 59692 4500.00000 0 -24850928.906 -4329961.685 3877021.054 10 0 59692 5400.00000 0 -25152573.179 -4253394.864 686543.082 10 0 59692 6300.00000 0 -25058574.453 -4098844.078 -2517250.841 10 0 59692 7200.00000 0 -24563536.874 -3920981.356 -5672181.604 10 0 59692 8100.00000 0 -23675333.778 -3774670.431 -8716977.456 10 0 59692 9000.00000 0 -22414855.985 -3712409.064 -11592465.089 10 0 59692 9900.00000 0 -20815232.561 -3781873.448 -14242722.625 10 0 59692 10800.00000 0 -18920555.445 -4023669.359 -16616171.735 10 0 59692 11700.00000 0 -16784160.265 -4469386.268 -18666587.207 10 0 59692 12600.00000 0 -14466534.429 -5140037.986 -20354003.731 10 0 59692 13500.00000 0 -12032939.301 -6044957.297 -21645501.807 10 0 59692 14400.00000 0 -9550845.355 -7181192.922 -22515856.995 10 0 59692 15300.00000 0 -7087287.242 -8533435.989 -22948039.351 10 0 59692 16200.00000 0 -4706249.054 -10074480.851 -22933552.892 10 0 59692 17100.00000 0 -2466188.838 -11766202.440 -22472607.991 10 0 59692 18000.00000 0 -417805.779 -13561010.391 -21574122.865 10 0 59692 18900.00000 0 1397856.889 -15403719.882 -20255553.702 10 0 59692 19800.00000 0 2950894.219 -17233761.284 -18542556.328 10 0 59692 20700.00000 0 4223545.526 -18987636.059 -16468485.741 10 0 59692 21600.00000 0 5210682.715 -20601515.682 -14073743.164 10 0 59692 22500.00000 0 5919761.528 -22013874.055 -11404983.394 10 0 59692 23400.00000 0 6370239.096 -23168042.135 -8514198.300 10 0 59692 24300.00000 0 6592484.070 -24014576.755 -5457694.923 10 0 59692 25200.00000 0 6626227.064 -24513343.400 -2294988.871 10 0 59692 26100.00000 0 6518618.853 -24635224.864 912364.339 10 0 59692 27000.00000 0 6321980.304 -24363383.766 4101976.162 10 0 59692 27900.00000 0 6091341.057 -23694025.957 7211845.658 10 0 59692 28800.00000 0 5881872.584 -22636633.190 10181569.094 10 0 59692 29700.00000 0 5746325.452 -21213656.005 12953514.451 10 0 59692 30600.00000 0 5732579.930 -19459680.569 15473937.763 10 0 59692 31500.00000 0 5881413.775 -17420105.304 17694019.666 10 0 59692 32400.00000 0 6224581.415 -15149383.428 19570802.693 10 0 59692 33300.00000 0 6783285.191 -12708905.286 21068012.056 10 0 59692 34200.00000 0 7567102.542 -10164608.982 22156745.172 10 0 59692 35100.00000 0 8573413.768 -7584418.403 22816017.998 10 0 59692 36000.00000 0 9787354.048 -5035614.427 23033158.937 10 0 59692 36900.00000 0 11182291.649 -2582247.284 22804043.916 10 0 59692 37800.00000 0 12720812.561 -282695.974 22133169.083 10 0 59692 38700.00000 0 14356171.012 1812525.838 21033560.269 10 0 59692 39600.00000 0 16034146.145 3662628.143 19526521.204 10 0 59692 40500.00000 0 17695228.492 5237991.792 17641225.115 10 0 59692 41400.00000 0 19277046.225 6521146.088 15414156.973 10 0 59692 42300.00000 0 20716931.043 7507237.365 12888416.372 10 0 59692 43200.00000 0 21954517.602 8203970.117 10112893.390 10 0 59692 44100.00000 0 22934268.581 8631023.875 7141332.294 10 0 59692 45000.00000 0 23607820.117 8818970.656 4031300.165 10 0 59692 45900.00000 0 23936049.409 8807738.636 843079.519 10 0 59692 46800.00000 0 23890777.379 8644686.692 -2361494.328 10 0 59692 47700.00000 0 23456034.151 8382370.881 -5520228.948 10 0 59692 48600.00000 0 22628833.111 8076097.090 -8571780.534 10 0 59692 49500.00000 0 21419419.612 7781363.347 -11456846.208 10 0 59692 50400.00000 0 19850982.420 7551300.197 -14119319.388 10 0 59692 51300.00000 0 17958838.412 7434217.895 -16507385.412 10 0 59692 52200.00000 0 15789123.180 7471364.913 -18574535.646 10 0 59692 53100.00000 0 13397041.147 7694993.529 -20280479.758 10 0 59692 54000.00000 0 10844747.214 8126815.461 -21591937.975 10 0 59692 54900.00000 0 8198947.651 8776914.135 -22483297.373 10 0 59692 55800.00000 0 5528319.848 9643160.945 -22937118.912 10 0 59692 56700.00000 0 2900858.189 10711161.594 -22944484.905 10 0 59692 57600.00000 0 381256.517 11954736.176 -22505179.676 10 0 59692 58500.00000 0 -1971563.697 13336914.000 -21627699.388 10 0 59692 59400.00000 0 -4106676.505 14811402.237 -20329090.466 10 0 59692 60300.00000 0 -5983033.379 16324467.292 -18634619.326 10 0 59692 61200.00000 0 -7570925.514 17817149.995 -16577279.592 10 0 59692 62100.00000 0 -8852966.008 19227721.357 -14197146.308 10 0 59692 63000.00000 0 -9824551.686 20494275.187 -11540589.732 10 0 59692 63900.00000 0 -10493786.344 21557347.753 -8659364.485 10 0 59692 64800.00000 0 -10880870.230 22362453.411 -5609592.316 10 0 59692 65700.00000 0 -11016983.237 22862428.616 -2450659.124 10 0 59692 66600.00000 0 -10942710.843 23019484.840 755951.216 10 0 59692 67500.00000 0 -10706081.300 22806883.434 3947862.446 10 0 59692 68400.00000 0 -10360298.920 22210161.708 7063026.464 10 0 59692 69300.00000 0 -9961271.037 21227858.667 10040934.043 10 0 59692 70200.00000 0 -9565034.581 19871710.318 12823791.608 10 0 59692 71100.00000 0 -9225192.049 18166306.827 15357640.931 10 0 59692 72000.00000 0 -8990465.661 16148226.600 17593400.069 10 0 59692 72900.00000 0 -8902473.031 13864684.134 19487805.914 10 0 59692 73800.00000 0 -8993817.799 11371748.482 21004241.034 10 0 59692 74700.00000 0 -9286575.020 8732206.840 22113429.894 10 0 59692 75600.00000 0 -9791234.303 6013161.876 22793992.395 10 0 59692 76500.00000 0 -10506144.396 3283461.971 23032845.371 10 0 59692 77400.00000 0 -11417481.998 611070.037 22825445.489 10 0 59692 78300.00000 0 -12499745.904 -1939521.429 22175869.846 10 0 59692 79200.00000 0 -13716755.915 -4309723.604 21096733.341 10 0 59692 80100.00000 0 -15023115.216 -6449033.747 19608944.618 10 0 59692 81000.00000 0 -16366075.845 -8316878.102 17741305.107 10 0 59692 81900.00000 0 -17687730.279 -9884040.463 15529958.337 10 0 59692 82800.00000 0 -18927438.502 -11133618.422 13017699.314 10 0 59692 83700.00000 0 -20024390.047 -12061468.661 10253156.275 10 0 59692 84600.00000 0 -20920194.536 -12676123.607 7289859.495 10 0 59692 85500.00000 0 -21561392.673 -12998183.391 4185214.166 10 0 59693 0.00000 0 -21901782.482 -13059208.942 999396.579 10 0 59693 900.00000 0 -21904462.964 -12900162.742 -2205807.433 10 0 59693 1800.00000 0 -21543508.226 -12569462.778 -5368195.333 10 0 59693 2700.00000 0 -20805201.227 -12120731.705 -8426354.786 10 0 59693 3600.00000 0 -19688773.319 -11610336.080 -11320856.848 10 0 59693 4500.00000 0 -18206617.093 -11094819.723 -13995413.659 10 0 59693 5400.00000 0 -16383961.792 -10628339.955 -16397977.460 10 0 59693 6300.00000 0 -14258023.084 -10260215.527 -18481759.149 10 0 59693 7200.00000 0 -11876661.180 -10032690.540 -20206145.947 10 0 59693 8100.00000 0 -9296601.995 -9979009.722 -21537499.878 10 0 59693 9000.00000 0 -6581294.388 -10121887.344 -22449821.025 10 0 59693 9900.00000 0 -3798492.124 -10472435.521 -22925262.114 10 0 59693 10800.00000 0 -1017660.669 -11029598.257 -22954483.995 10 0 59693 11700.00000 0 1692683.494 -11780116.221 -22536844.580 10 0 59693 12600.00000 0 4267590.321 -12699024.728 -21680417.092 10 0 59693 13500.00000 0 6648141.500 -13750664.730 -20401836.845 10 0 59693 14400.00000 0 8783660.920 -14890164.801 -18725979.103 10 0 59693 15300.00000 0 10633578.178 -16065331.857 -16685474.048 10 0 59693 16200.00000 0 12168867.688 -17218870.870 -14320068.170 10 0 59693 17100.00000 0 13373003.839 -18290839.595 -11675844.579 10 0 59693 18000.00000 0 14242393.061 -19221234.113 -8804317.803 10 0 59693 18900.00000 0 14786265.989 -19952595.279 -5761421.286 10 0 59693 19800.00000 0 15026035.890 -20432525.192 -2606408.075 10 0 59693 20700.00000 0 14994152.142 -20616006.597 599312.788 10 0 59693 21600.00000 0 14732499.156 -20467426.637 3793380.490 10 0 59693 22500.00000 0 14290410.292 -19962219.091 6913702.815 10 0 59693 23400.00000 0 13722382.472 -19088055.655 9899667.883 10 0 59693 24300.00000 0 13085589.629 -17845536.165 12693323.130 10 0 59693 25200.00000 0 12437301.194 -16248348.958 15240498.308 10 0 59693 26100.00000 0 11832315.277 -14322895.083 17491850.741 10 0 59693 27000.00000 0 11320515.049 -12107392.494 19403813.120 10 0 59693 27900.00000 0 10944651.041 -9650497.919 20939426.380 10 0 59693 28800.00000 0 10738442.058 -7009504.084 22069042.611 10 0 59693 29700.00000 0 10725073.678 -4248187.045 22770885.825 10 0 59693 30600.00000 0 10916156.420 -1434392.513 23031461.062 10 0 59693 31500.00000 0 11311186.354 1362539.578 22845805.135 10 0 59693 32400.00000 0 11897530.073 4074406.808 22217575.213 10 0 59693 33300.00000 0 12650934.278 6636724.880 21158974.127 10 0 59693 34200.00000 0 13536538.591 8991151.804 19690514.094 10 0 59693 35100.00000 0 14510349.559 11087657.009 17840623.266 10 0 59693 36000.00000 0 15521114.758 12886347.068 15645102.112 10 0 59693 36900.00000 0 16512519.334 14358873.615 13146439.345 10 0 59693 37800.00000 0 17425613.804 15489366.147 10392999.559 10 0 59693 38700.00000 0 18201372.150 16274851.729 7438097.145 10 0 59693 39600.00000 0 18783273.367 16725144.597 4338973.424 10 0 59693 40500.00000 0 19119798.334 16862210.654 1155695.838 10 0 59693 41400.00000 0 19166736.903 16719033.543 -2050000.208 10 0 59693 42300.00000 0 18889207.593 16338029.854 -5215904.743 10 0 59693 43200.00000 0 18263303.928 15769080.041 -8280538.957 10 0 59693 44100.00000 0 17277296.764 15067257.839 -11184349.811 10 0 59693 45000.00000 0 15932340.354 14290353.902 -13870870.003 10 0 59693 45900.00000 0 14242650.583 13496298.244 -16287820.380 10 0 59693 46800.00000 0 12235145.883 12740590.522 -18388132.933 10 0 59693 47700.00000 0 9948563.959 12073847.064 -20130873.873 10 0 59693 48600.00000 0 7432089.496 11539568.754 -21482048.357 10 0 59693 49500.00000 0 4743548.598 11172224.670 -22415270.725 10 0 59693 50400.00000 0 1947244.164 10995733.102 -22912286.620 10 0 59693 51300.00000 0 -888478.538 11022404.854 -22963336.439 10 0 59693 52200.00000 0 -3693835.296 11252394.147 -22567352.503 10 0 59693 53100.00000 0 -6400267.213 11673681.018 -21731985.644 10 0 59693 54000.00000 0 -8943055.061 12262586.468 -20473460.286 10 0 59693 54900.00000 0 -11263774.857 12984799.023 -18816260.394 10 0 59693 55800.00000 0 -13312492.232 13796869.471 -16792652.176 10 0 59693 56700.00000 0 -15049604.192 14648110.517 -14442052.681 10 0 59693 57600.00000 0 -16447251.659 15482820.719 -11810256.641 10 0 59693 58500.00000 0 -17490244.203 16242738.020 -8948536.982 10 0 59693 59400.00000 0 -18176459.209 16869618.337 -5912637.089 10 0 59693 60300.00000 0 -18516700.001 17307829.187 -2761675.197 10 0 59693 61200.00000 0 -18534020.478 17506847.720 443016.650 10 0 59693 62100.00000 0 -18262546.539 17423556.660 3639095.428 10 0 59693 63000.00000 0 -17745845.922 17024240.432 6764427.321 10 0 59693 63900.00000 0 -17034917.097 16286196.742 9758300.475 10 0 59693 64800.00000 0 -16185883.777 15198895.423 12562606.131 10 0 59693 65700.00000 0 -15257493.674 13764635.735 15122964.887 10 0 59693 66600.00000 0 -14308527.885 11998674.722 17389776.208 10 0 59693 67500.00000 0 -13395230.490 9928821.420 19319171.386 10 0 59693 68400.00000 0 -12568866.445 7594514.087 20873852.354 10 0 59693 69300.00000 0 -11873509.889 5045419.046 22023801.234 10 0 59693 70200.00000 0 -11344154.826 2339609.265 22746848.232 10 0 59693 71100.00000 0 -11005226.280 -458602.147 23029088.301 10 0 59693 72000.00000 0 -10869553.123 -3281084.388 22865139.688 10 0 59693 72900.00000 0 -10937844.462 -6058468.158 22258240.450 10 0 59693 73800.00000 0 -11198690.624 -8722776.192 21220181.675 10 0 59693 74700.00000 0 -11629088.131 -11209997.727 19771078.979 10 0 59693 75600.00000 0 -12195466.495 -13462501.946 17938986.561 10 0 59693 76500.00000 0 -12855173.991 -15431191.974 15759360.682 10 0 59693 77400.00000 0 -13558360.597 -17077311.385 13274382.171 10 0 59693 78300.00000 0 -14250179.767 -18373829.357 10532149.996 10 0 59693 79200.00000 0 -14873217.296 -19306347.708 7585760.364 10 0 59693 80100.00000 0 -15370045.782 -19873492.461 4492288.150 10 0 59693 81000.00000 0 -15685797.646 -20086773.896 1311689.433 10 0 59693 81900.00000 0 -15770648.393 -19969920.961 -1894354.349 10 0 59693 82800.00000 0 -15582105.196 -19557717.785 -5063628.621 10 0 59693 83700.00000 0 -15087003.556 -18894390.940 -8134591.319 10 0 59693 84600.00000 0 -14263126.684 -18031615.025 -11047568.599 10 0 59693 85500.00000 0 -13100377.850 -17026220.348 -13745917.015 99